Location: Home
(42.5358°N, 72.7383°W)
Time: 05:44:26
(UTC-05:00)

Courier 1B Rocket - Pass Details

Date: 29 November 2021
Orbit: 920 x 1202 km, 28.2° (Epoch: 25 January)

Event Time Altitude Azimuth Distance (km) Brightness Sun altitude
Rises 04:39:06 0° 252° (WSW) 3,606 - -25.2°
Reaches altitude 10° 04:42:54 10° 230° (SW) 2,702 - -24.5°
Exits shadow 04:45:06 14° 210° (SSW) 2,425 6.8 -24.1°
Maximum altitude 04:46:26 15° 197° (SSW) 2,388 6.9 -23.9°
Drops below altitude 10° 04:50:05 10° 164° (SSE) 2,800 7.7 -23.2°
Sets 04:54:09 0° 142° (SE) 3,815 8.8 -22.5°
